QPF
0.06 0.06 0.08 0.08 0.07 0.05 0.06 0.04 0.02 0.02 0.02 0.02 0.03 0.02 0.02 0.02 0.01 0.01 0.01 0.01 0.00 0.00 0.01 0.01 0.02 0.03 0.04 0.04 0.04 0.04 0.04 0.03 0.02 0.02 0.02 0.02 0.01 0.01 0.01 0.01 0.01 0.01 0.01
0.07 0.06 0.06 0.09 0.09 0.08 0.06 0.07 0.06 0.03 0.03 0.03 0.03 0.02 0.02 0.02 0.01 0.01 0.01 0.01 0.01 0.01 0.01 0.01 0.03 0.03 0.03 0.04 0.04 0.04 0.04 0.03 0.03 0.02 0.02 0.02 0.01 0.02 0.02 0.01 0.01 0.01 0.01
0.07 0.07 0.06 0.06 0.08 0.09 0.07 0.08 0.08 0.06 0.05 0.03 0.03 0.03 0.02 0.02 0.01 0.02 0.01 0.02 0.02 0.02 0.01 0.01 0.01 0.02 0.03 0.04 0.04 0.04 0.04 0.05 0.04 0.04 0.03 0.02 0.02 0.01 0.02 0.02 0.02 0.01 0.01
0.06 0.06 0.06 0.05 0.05 0.05 0.06 0.05 0.05 0.06 0.05 0.04 0.03 0.03 0.02 0.01 0.01 0.01 0.01 0.01 0.02 0.03 0.02 0.02 0.01 0.01 0.02 0.03 0.04 0.05 0.05 0.06 0.06 0.05 0.04 0.04 0.03 0.02 0.02 0.02 0.01 0.01 0.01
0.04 0.05 0.05 0.04 0.04 0.04 0.04 0.03 0.03 0.04 0.03 0.04 0.04 0.03 0.03 0.03 0.02 0.02 0.02 0.01 0.02 0.03 0.03 0.02 0.02 0.02 0.02 0.02 0.03 0.04 0.06 0.06 0.07 0.07 0.06 0.05 0.04 0.04 0.04 0.03 0.02 0.02 0.01
0.03 0.04 0.04 0.04 0.04 0.04 0.03 0.03 0.02 0.03 0.03 0.03 0.06 0.07 0.05 0.03 0.02 0.02 0.02 0.02 0.02 0.01 0.01 0.01 0.01 0.01 0.02 0.02 0.02 0.03 0.04 0.04 0.05 0.06 0.07 0.06 0.05 0.05 0.05 0.04 0.04 0.03 0.02
0.01 0.02 0.03 0.03 0.03 0.04 0.03 0.02 0.02 0.02 0.02 0.03 0.05 0.07 0.08 0.06 0.04 0.02 0.01 0.01 0.01 0.01 0.01 0.01 0.01 0.01 0.01 0.02 0.02 0.03 0.03 0.03 0.03 0.04 0.05 0.05 0.06 0.06 0.05 0.05 0.05 0.04 0.03
0.00 0.01 0.02 0.03 0.02 0.03 0.03 0.02 0.02 0.02 0.02 0.02 0.02 0.04 0.05 0.06 0.05 0.04 0.02 0.00 0.00 0.00 0.00 0.00 0.01 0.01 0.01 0.01 0.01 0.02 0.03 0.03 0.04 0.04 0.04 0.05 0.05 0.05 0.05 0.06 0.05 0.05 0.05
0.00 0.00 0.01 0.02 0.02 0.02 0.02 0.02 0.01 0.02 0.02 0.02 0.02 0.02 0.03 0.04 0.04 0.03 0.02 0.02 0.01 0.00 0.00 0.00 0.01 0.01 0.01 0.01 0.01 0.02 0.02 0.02 0.03 0.04 0.04 0.05 0.06 0.06 0.06 0.06 0.06 0.06 0.06
0.00 0.00 0.00 0.01 0.02 0.01 0.01 0.02 0.01 0.01 0.01 0.01 0.01 0.01 0.01 0.01 0.02 0.03 0.02 0.02 0.01 0.01 0.01 0.01 0.01 0.01 0.01 0.01 0.02 0.01 0.01 0.01 0.01 0.02 0.03 0.04 0.06 0.07 0.08 0.08 0.09 0.08 0.06
0.00 0.00 0.00 0.01 0.01 0.01 0.01 0.01 0.01 0.01 0.01 0.01 0.01 0.01 0.01 0.01 0.01 0.02 0.02 0.03 0.02 0.02 0.02 0.01 0.01 0.01 0.01 0.01 0.02 0.01 0.01 0.01 0.01 0.01 0.02 0.03 0.06 0.09 0.10 0.11 0.11 0.11 0.09
0.00 0.00 0.00 0.00 0.01 0.01 0.01 0.01 0.01 0.01 0.01 0.01 0.01 0.01 0.01 0.01 0.01 0.01 0.02 0.02 0.02 0.02 0.02 0.01 0.01 0.01 0.01 0.01 0.01 0.01 0.01 0.02 0.01 0.01 0.02 0.03 0.04 0.06 0.11 0.13 0.15 0.14 0.13
0.00 0.00 0.00 0.00 0.00 0.01 0.01 0.01 0.00 0.01 0.01 0.00 0.00 0.00 0.01 0.01 0.01 0.01 0.01 0.01 0.01 0.01 0.01 0.01 0.01 0.01 0.01 0.01 0.02 0.02 0.01 0.02 0.01 0.01 0.02 0.03 0.03 0.03 0.06 0.09 0.11 0.13 0.11
0.00 0.00 0.00 0.00 0.00 0.00 0.01 0.01 0.00 0.00 0.00 0.00 0.00 0.00 0.00 0.00 0.01 0.01 0.01 0.01 0.01 0.01 0.01 0.01 0.01 0.01 0.01 0.01 0.02 0.01 0.01 0.01 0.01 0.01 0.02 0.02 0.02 0.02 0.03 0.04 0.07 0.09 0.11
0.00 0.00 0.00 0.00 0.00 0.00 0.00 0.00 0.00 0.00 0.00 0.00 0.00 0.00 0.00 0.00 0.00 0.01 0.01 0.01 0.01 0.01 0.01 0.01 0.01 0.01 0.01 0.01 0.01 0.01 0.00 0.01 0.01 0.01 0.01 0.01 0.01 0.02 0.02 0.02 0.04 0.06 0.08
0.00 0.00 0.00 0.00 0.00 0.00 0.00 0.00 0.00 0.00 0.00 0.00 0.00 0.00 0.00 0.00 0.00 0.00 0.01 0.01 0.01 0.01 0.01 0.01 0.01 0.00 0.00 0.01 0.01 0.01 0.01 0.01 0.01 0.01 0.01 0.01 0.01 0.02 0.02 0.01 0.02 0.02 0.04
0.00 0.00 0.00 0.00 0.00 0.00 0.00 0.00 0.00 0.00 0.00 0.00 0.00 0.00 0.00 0.00 0.00 0.00 0.00 0.00 0.00 0.01 0.01 0.00 0.00 0.00 0.00 0.00 0.01 0.01 0.01 0.01 0.01 0.01 0.01 0.01 0.01 0.01 0.01 0.01 0.02 0.02 0.02
0.00 0.00 0.00 0.00 0.00 0.00 0.00 0.00 0.00 0.00 0.00 0.00 0.00 0.00 0.00 0.00 0.00 0.00 0.00 0.00 0.00 0.00 0.00 0.00 0.00 0.00 0.00 0.00 0.00 0.01 0.01 0.01 0.01 0.01 0.01 0.01 0.01 0.01 0.01 0.01 0.01 0.02 0.02
0.00 0.00 0.00 0.00 0.00 0.00 0.00 0.00 0.00 0.00 0.00 0.00 0.00 0.00 0.00 0.00 0.00 0.00 0.00 0.00 0.00 0.00 0.00 0.00 0.00 0.00 0.00 0.00 0.00 0.00 0.01 0.01 0.01 0.01 0.01 0.01 0.01 0.01 0.01 0.01 0.01 0.01 0.02
0.00 0.00 0.00 0.00 0.00 0.00 0.00 0.00 0.00 0.00 0.00 0.00 0.00 0.00 0.00 0.00 0.00 0.00 0.00 0.00 0.00 0.00 0.00 0.00 0.00 0.00 0.00 0.00 0.00 0.01 0.01 0.01 0.01 0.01 0.01 0.02 0.02 0.01 0.01 0.01 0.01 0.01 0.01
0.00 0.00 0.00 0.00 0.00 0.00 0.01 0.01 0.01 0.01 0.00 0.00 0.00 0.00 0.00 0.00 0.00 0.00 0.00 0.00 0.00 0.00 0.00 0.01 0.00 0.00 0.00 0.00 0.00 0.01 0.01 0.01 0.01 0.01 0.01 0.02 0.02 0.02 0.02 0.01 0.01 0.01 0.01
0.00 0.00 0.00 0.00 0.00 0.01 0.01 0.01 0.01 0.01 0.01 0.01 0.00 0.00 0.00 0.00 0.00 0.00 0.00 0.00 0.00 0.00 0.01 0.01 0.01 0.00 0.00 0.00 0.00 0.01 0.01 0.01 0.02 0.02 0.01 0.01 0.01 0.02 0.02 0.01 0.01 0.01 0.01
0.00 0.00 0.00 0.00 0.00 0.01 0.01 0.01 0.02 0.01 0.01 0.01 0.01 0.00 0.00 0.00 0.00 0.00 0.00 0.00 0.00 0.00 0.01 0.01 0.01 0.01 0.00 0.01 0.01 0.01 0.01 0.01 0.01 0.01 0.01 0.01 0.01 0.01 0.01 0.01 0.02 0.01 0.01
0.00 0.00 0.00 0.00 0.00 0.00 0.01 0.01 0.01 0.01 0.01 0.01 0.01 0.01 0.01 0.00 0.00 0.00 0.00 0.00 0.00 0.00 0.00 0.01 0.01 0.01 0.01 0.01 0.01 0.01 0.01 0.01 0.01 0.01 0.01 0.01 0.01 0.01 0.02 0.02 0.02 0.02 0.01
0.00 0.00 0.00 0.00 0.00 0.00 0.00 0.00 0.01 0.01 0.01 0.01 0.01 0.00 0.01 0.00 0.00 0.00 0.00 0.00 0.00 0.00 0.00 0.00 0.01 0.01 0.01 0.01 0.02 0.02 0.01 0.02 0.02 0.02 0.01 0.01 0.01 0.01 0.01 0.02 0.02 0.02 0.02
0.00 0.00 0.00 0.00 0.00 0.00 0.00 0.00 0.00 0.01 0.01 0.01 0.01 0.00 0.00 0.00 0.00 0.01 0.01 0.00 0.00 0.00 0.00 0.00 0.00 0.00 0.00 0.01 0.01 0.01 0.01 0.02 0.02 0.02 0.01 0.01 0.01 0.01 0.02 0.01 0.01 0.02 0.02
MSLP
1016.89 1017.10 1017.26 1017.39 1017.52 1017.65 1017.77 1017.88 1017.95 1017.98 1017.97 1017.93 1017.86 1017.78 1017.73 1017.71 1017.73 1017.80 1017.91 1018.02 1018.12 1018.18 1018.17 1018.10 1017.94 1017.71 1017.44 1017.13 1016.81 1016.50 1016.22 1015.98 1015.80 1015.68 1015.62 1015.61 1015.65 1015.72 1015.82 1015.93 1016.04 1016.14 1016.24
1016.97 1017.17 1017.32 1017.45 1017.58 1017.71 1017.83 1017.95 1018.04 1018.10 1018.11 1018.07 1018.01 1017.94 1017.87 1017.83 1017.82 1017.86 1017.93 1018.03 1018.11 1018.18 1018.19 1018.14 1018.02 1017.81 1017.54 1017.21 1016.85 1016.47 1016.12 1015.79 1015.53 1015.33 1015.20 1015.15 1015.15 1015.20 1015.29 1015.39 1015.49 1015.59 1015.68
1017.09 1017.29 1017.45 1017.59 1017.72 1017.85 1017.99 1018.11 1018.22 1018.29 1018.32 1018.30 1018.24 1018.17 1018.08 1018.01 1017.96 1017.95 1017.98 1018.03 1018.10 1018.16 1018.18 1018.16 1018.06 1017.89 1017.63 1017.31 1016.93 1016.52 1016.10 1015.71 1015.36 1015.10 1014.91 1014.80 1014.78 1014.80 1014.87 1014.96 1015.05 1015.13 1015.21
1017.24 1017.46 1017.63 1017.79 1017.93 1018.07 1018.21 1018.35 1018.46 1018.54 1018.58 1018.57 1018.52 1018.44 1018.34 1018.24 1018.15 1018.10 1018.07 1018.08 1018.11 1018.15 1018.17 1018.17 1018.10 1017.96 1017.74 1017.43 1017.06 1016.63 1016.17 1015.73 1015.33 1015.01 1014.77 1014.62 1014.56 1014.57 1014.62 1014.69 1014.76 1014.82 1014.87
1017.41 1017.65 1017.85 1018.03 1018.19 1018.34 1018.48 1018.61 1018.72 1018.80 1018.84 1018.84 1018.80 1018.73 1018.63 1018.51 1018.39 1018.30 1018.22 1018.18 1018.17 1018.19 1018.21 1018.21 1018.17 1018.07 1017.88 1017.61 1017.25 1016.82 1016.35 1015.89 1015.45 1015.09 1014.81 1014.63 1014.54 1014.52 1014.54 1014.59 1014.64 1014.67 1014.68
1017.57 1017.83 1018.06 1018.27 1018.44 1018.60 1018.74 1018.86 1018.96 1019.03 1019.08 1019.09 1019.07 1019.01 1018.92 1018.80 1018.68 1018.56 1018.45 1018.38 1018.33 1018.32 1018.33 1018.34 1018.31 1018.24 1018.09 1017.85 1017.52 1017.11 1016.66 1016.18 1015.73 1015.34 1015.04 1014.83 1014.71 1014.66 1014.66 1014.68 1014.70 1014.70 1014.68
1017.71 1017.99 1018.25 1018.47 1018.67 1018.83 1018.96 1019.07 1019.16 1019.23 1019.27 1019.30 1019.30 1019.27 1019.20 1019.11 1019.00 1018.88 1018.76 1018.67 1018.60 1018.57 1018.56 1018.57 1018.56 1018.51 1018.39 1018.19 1017.90 1017.52 1017.08 1016.62 1016.17 1015.77 1015.44 1015.21 1015.06 1014.99 1014.96 1014.95 1014.94 1014.91 1014.86
1017.82 1018.11 1018.38 1018.63 1018.84 1019.01 1019.14 1019.24 1019.32 1019.38 1019.43 1019.47 1019.50 1019.51 1019.49 1019.44 1019.36 1019.26 1019.15 1019.04 1018.97 1018.92 1018.90 1018.91 1018.91 1018.88 1018.79 1018.63 1018.38 1018.03 1017.63 1017.18 1016.74 1016.34 1016.00 1015.75 1015.58 1015.48 1015.42 1015.39 1015.35 1015.28 1015.20
1017.89 1018.18 1018.47 1018.74 1018.96 1019.14 1019.28 1019.38 1019.45 1019.51 1019.58 1019.64 1019.70 1019.75 1019.78 1019.77 1019.73 1019.66 1019.57 1019.47 1019.39 1019.34 1019.32 1019.32 1019.33 1019.32 1019.27 1019.14 1018.93 1018.63 1018.27 1017.85 1017.43 1017.03 1016.69 1016.42 1016.23 1016.10 1016.01 1015.95 1015.88 1015.80 1015.69
1017.92 1018.22 1018.52 1018.80 1019.05 1019.24 1019.39 1019.49 1019.58 1019.65 1019.73 1019.81 1019.90 1019.99 1020.06 1020.09 1020.09 1020.05 1019.98 1019.89 1019.82 1019.76 1019.74 1019.75 1019.77 1019.79 1019.77 1019.68 1019.52 1019.27 1018.95 1018.58 1018.18 1017.80 1017.46 1017.18 1016.97 1016.81 1016.70 1016.61 1016.52 1016.42 1016.29
1017.92 1018.22 1018.53 1018.83 1019.09 1019.31 1019.47 1019.60 1019.70 1019.79 1019.88 1019.99 1020.10 1020.21 1020.30 1020.37 1020.39 1020.37 1020.31 1020.23 1020.16 1020.11 1020.10 1020.11 1020.16 1020.20 1020.22 1020.19 1020.08 1019.90 1019.63 1019.31 1018.95 1018.59 1018.27 1017.99 1017.76 1017.59 1017.46 1017.34 1017.23 1017.11 1016.98
1017.88 1018.17 1018.49 1018.80 1019.08 1019.33 1019.52 1019.67 1019.79 1019.91 1020.02 1020.14 1020.26 1020.38 1020.48 1020.55 1020.58 1020.56 1020.51 1020.44 1020.37 1020.32 1020.32 1020.35 1020.43 1020.51 1020.58 1020.61 1020.57 1020.45 1020.25 1019.99 1019.69 1019.37 1019.07 1018.79 1018.57 1018.39 1018.24 1018.11 1017.99 1017.85 1017.71
1017.77 1018.07 1018.39 1018.71 1019.01 1019.28 1019.50 1019.68 1019.83 1019.97 1020.09 1020.22 1020.35 1020.47 1020.56 1020.62 1020.63 1020.60 1020.54 1020.47 1020.40 1020.36 1020.37 1020.43 1020.54 1020.67 1020.80 1020.89 1020.93 1020.89 1020.77 1020.59 1020.35 1020.08 1019.82 1019.57 1019.35 1019.17 1019.02 1018.88 1018.75 1018.60 1018.45
1017.60 1017.89 1018.20 1018.53 1018.84 1019.13 1019.37 1019.58 1019.76 1019.91 1020.06 1020.19 1020.31 1020.42 1020.49 1020.53 1020.52 1020.47 1020.40 1020.32 1020.25 1020.23 1020.25 1020.35 1020.49 1020.67 1020.86 1021.03 1021.15 1021.20 1021.17 1021.07 1020.90 1020.71 1020.49 1020.28 1020.09 1019.91 1019.76 1019.62 1019.48 1019.33 1019.17
1017.35 1017.63 1017.93 1018.25 1018.56 1018.85 1019.11 1019.34 1019.54 1019.71 1019.87 1020.01 1020.13 1020.22 1020.28 1020.29 1020.26 1020.20 1020.11 1020.03 1019.97 1019.95 1020.01 1020.13 1020.32 1020.55 1020.80 1021.04 1021.23 1021.37 1021.43 1021.42 1021.34 1021.22 1021.06 1020.90 1020.74 1020.59 1020.45 1020.30 1020.16 1020.00 1019.83
1017.04 1017.29 1017.58 1017.87 1018.17 1018.45 1018.71 1018.95 1019.16 1019.35 1019.52 1019.66 1019.79 1019.87 1019.92 1019.93 1019.89 1019.82 1019.73 1019.65 1019.61 1019.61 1019.69 1019.85 1020.07 1020.35 1020.65 1020.95 1021.21 1021.43 1021.57 1021.65 1021.65 1021.61 1021.52 1021.42 1021.30 1021.17 1021.04 1020.91 1020.76 1020.60 1020.42
1016.67 1016.90 1017.15 1017.41 1017.68 1017.94 1018.19 1018.42 1018.63 1018.83 1019.02 1019.18 1019.31 1019.41 1019.47 1019.48 1019.45 1019.39 1019.32 1019.26 1019.24 1019.27 1019.37 1019.55 1019.80 1020.11 1020.45 1020.79 1021.12 1021.39 1021.61 1021.76 1021.85 1021.88 1021.87 1021.82 1021.75 1021.65 1021.54 1021.41 1021.26 1021.10 1020.91
1016.29 1016.48 1016.69 1016.91 1017.13 1017.36 1017.58 1017.80 1018.02 1018.22 1018.42 1018.60 1018.75 1018.88 1018.96 1019.01 1019.01 1018.99 1018.95 1018.92 1018.92 1018.98 1019.11 1019.31 1019.57 1019.90 1020.26 1020.63 1020.98 1021.30 1021.58 1021.80 1021.95 1022.06 1022.11 1022.12 1022.09 1022.03 1021.94 1021.81 1021.67 1021.49 1021.30
1015.91 1016.06 1016.23 1016.40 1016.58 1016.76 1016.95 1017.15 1017.35 1017.56 1017.77 1017.98 1018.17 1018.33 1018.46 1018.55 1018.60 1018.63 1018.63 1018.65 1018.69 1018.77 1018.91 1019.12 1019.40 1019.72 1020.08 1020.46 1020.84 1021.19 1021.50 1021.77 1021.99 1022.15 1022.26 1022.32 1022.34 1022.31 1022.24 1022.12 1021.98 1021.80 1021.60
1015.54 1015.66 1015.77 1015.90 1016.03 1016.17 1016.33 1016.50 1016.69 1016.91 1017.13 1017.37 1017.60 1017.81 1017.99 1018.14 1018.25 1018.32 1018.39 1018.44 1018.52 1018.63 1018.79 1019.00 1019.27 1019.59 1019.95 1020.32 1020.70 1021.07 1021.41 1021.72 1021.98 1022.19 1022.36 1022.47 1022.52 1022.52 1022.46 1022.36 1022.21 1022.03 1021.83
1015.17 1015.25 1015.33 1015.41 1015.50 1015.60 1015.72 1015.87 1016.06 1016.27 1016.52 1016.78 1017.05 1017.31 1017.55 1017.75 1017.92 1018.06 1018.17 1018.28 1018.39 1018.53 1018.71 1018.93 1019.19 1019.50 1019.85 1020.21 1020.59 1020.96 1021.32 1021.66 1021.95 1022.21 1022.42 1022.57 1022.66 1022.68 1022.64 1022.55 1022.40 1022.21 1022.00
1014.77 1014.82 1014.86 1014.91 1014.96 1015.03 1015.13 1015.27 1015.44 1015.67 1015.93 1016.22 1016.52 1016.83 1017.11 1017.38 1017.60 1017.80 1017.96 1018.12 1018.27 1018.44 1018.64 1018.87 1019.13 1019.44 1019.77 1020.13 1020.51 1020.88 1021.25 1021.61 1021.94 1022.23 1022.47 1022.66 1022.78 1022.82 1022.80 1022.71 1022.56 1022.37 1022.15
1014.31 1014.33 1014.34 1014.36 1014.39 1014.44 1014.52 1014.65 1014.82 1015.05 1015.34 1015.65 1015.99 1016.34 1016.67 1016.98 1017.26 1017.50 1017.72 1017.92 1018.12 1018.33 1018.55 1018.80 1019.08 1019.40 1019.74 1020.10 1020.47 1020.85 1021.23 1021.60 1021.95 1022.27 1022.54 1022.75 1022.90 1022.97 1022.96 1022.88 1022.73 1022.53 1022.30
1013.75 1013.75 1013.74 1013.73 1013.75 1013.78 1013.86 1013.99 1014.17 1014.42 1014.72 1015.06 1015.43 1015.82 1016.19 1016.54 1016.87 1017.16 1017.43 1017.69 1017.93 1018.19 1018.46 1018.74 1019.05 1019.38 1019.74 1020.11 1020.49 1020.88 1021.27 1021.64 1022.01 1022.34 1022.63 1022.87 1023.03 1023.12 1023.13 1023.05 1022.91 1022.70 1022.45
1013.11 1013.07 1013.04 1013.02 1013.02 1013.06 1013.14 1013.28 1013.48 1013.75 1014.07 1014.44 1014.85 1015.26 1015.67 1016.06 1016.43 1016.78 1017.11 1017.42 1017.72 1018.04 1018.36 1018.69 1019.05 1019.41 1019.79 1020.18 1020.57 1020.96 1021.35 1021.74 1022.10 1022.44 1022.75 1022.99 1023.18 1023.28 1023.30 1023.24 1023.09 1022.88 1022.63
1012.41 1012.34 1012.28 1012.25 1012.24 1012.28 1012.37 1012.53 1012.75 1013.05 1013.41 1013.81 1014.24 1014.69 1015.14 1015.57 1015.99 1016.39 1016.77 1017.15 1017.52 1017.90 1018.29 1018.68 1019.09 1019.50 1019.91 1020.31 1020.71 1021.11 1021.49 1021.87 1022.23 1022.56 1022.87 1023.12 1023.31 1023.43 1023.47 1023.42 1023.28 1023.07 1022.80
Thickness
5668 5669 5669 5669 5669 5670 5671 5672 5673 5674 5675 5677 5678 5679 5679 5680 5680 5680 5679 5679 5679 5678 5678 5677 5677 5676 5676 5675 5675 5674 5674 5673 5672 5671 5671 5670 5669 5669 5668 5667 5666 5665 5665
5661 5662 5663 5663 5663 5664 5666 5667 5668 5669 5670 5671 5672 5673 5674 5674 5674 5674 5674 5674 5673 5673 5672 5671 5671 5671 5670 5670 5670 5669 5669 5668 5668 5667 5666 5666 5665 5665 5664 5663 5662 5661 5661
5654 5655 5656 5657 5657 5658 5659 5661 5662 5662 5664 5665 5665 5666 5667 5668 5668 5668 5668 5668 5667 5666 5666 5665 5665 5665 5664 5664 5664 5664 5663 5663 5663 5662 5662 5662 5661 5660 5659 5659 5658 5657 5657
5646 5648 5649 5649 5650 5651 5652 5653 5654 5654 5655 5656 5657 5658 5660 5661 5662 5662 5662 5661 5661 5660 5659 5659 5658 5657 5657 5657 5657 5658 5657 5657 5657 5656 5656 5656 5656 5656 5655 5654 5654 5653 5652
5639 5640 5641 5641 5643 5644 5645 5646 5646 5647 5647 5648 5649 5651 5652 5653 5654 5655 5655 5654 5654 5653 5652 5652 5651 5650 5650 5649 5649 5650 5650 5650 5650 5650 5650 5650 5650 5650 5650 5649 5649 5648 5647
5630 5631 5632 5633 5634 5636 5636 5637 5638 5639 5639 5640 5642 5643 5645 5646 5647 5647 5646 5646 5646 5645 5645 5644 5644 5643 5642 5641 5641 5641 5642 5642 5642 5642 5643 5643 5643 5643 5643 5643 5643 5643 5642
5621 5623 5624 5625 5626 5627 5627 5628 5630 5630 5630 5631 5631 5633 5636 5639 5639 5638 5638 5637 5637 5637 5636 5635 5635 5634 5633 5632 5632 5632 5632 5632 5633 5634 5634 5634 5635 5635 5636 5636 5636 5636 5636
5613 5615 5616 5617 5618 5619 5619 5619 5620 5620 5620 5620 5619 5620 5622 5625 5628 5630 5629 5628 5627 5626 5626 5625 5624 5624 5623 5623 5623 5623 5623 5622 5623 5624 5625 5626 5626 5627 5627 5628 5628 5629 5629
5605 5606 5607 5609 5610 5610 5610 5610 5610 5610 5609 5610 5610 5609 5608 5610 5612 5616 5618 5617 5617 5616 5615 5614 5613 5612 5612 5612 5612 5611 5612 5612 5613 5613 5614 5616 5617 5617 5618 5619 5620 5620 5621
5596 5597 5599 5600 5600 5601 5600 5601 5601 5600 5600 5599 5599 5599 5598 5599 5598 5601 5605 5606 5605 5604 5603 5603 5602 5601 5601 5600 5600 5600 5601 5601 5602 5603 5604 5605 5606 5607 5609 5610 5610 5611 5612
5588 5589 5590 5590 5591 5591 5591 5591 5590 5590 5590 5589 5588 5588 5588 5588 5588 5587 5589 5591 5592 5591 5591 5591 5590 5590 5589 5589 5589 5589 5589 5589 5591 5592 5593 5594 5596 5597 5598 5599 5600 5601 5602
5580 5580 5581 5581 5581 5581 5581 5581 5581 5580 5579 5579 5578 5578 5577 5576 5576 5575 5576 5577 5578 5579 5579 5579 5579 5578 5578 5577 5576 5576 5576 5577 5578 5580 5582 5583 5584 5586 5587 5588 5589 5591 5591
5571 5571 5572 5572 5571 5571 5571 5571 5570 5570 5569 5568 5567 5567 5566 5566 5565 5565 5564 5565 5565 5567 5568 5568 5567 5566 5565 5565 5564 5564 5564 5565 5566 5568 5570 5571 5573 5574 5575 5576 5578 5579 5580
5562 5563 5563 5562 5562 5562 5561 5561 5560 5559 5558 5557 5556 5556 5555 5554 5554 5553 5552 5551 5551 5553 5555 5555 5555 5554 5553 5553 5552 5552 5552 5553 5554 5556 5557 5559 5561 5562 5562 5564 5565 5566 5567
5554 5554 5553 5553 5552 5551 5551 5550 5549 5548 5547 5546 5545 5545 5544 5543 5542 5541 5539 5538 5536 5538 5541 5542 5541 5541 5540 5540 5540 5540 5540 5541 5542 5543 5545 5546 5547 5548 5549 5551 5552 5553 5554
5544 5544 5543 5542 5542 5541 5540 5540 5538 5537 5536 5536 5534 5533 5533 5532 5530 5529 5527 5526 5524 5524 5526 5529 5527 5527 5527 5528 5528 5528 5528 5528 5530 5531 5532 5533 5534 5535 5536 5537 5539 5540 5541
5535 5534 5533 5532 5531 5530 5530 5528 5527 5526 5525 5524 5522 5521 5521 5520 5518 5517 5515 5514 5512 5511 5512 5515 5514 5515 5514 5514 5515 5515 5516 5516 5517 5518 5519 5520 5522 5523 5524 5525 5525 5527 5528
5525 5524 5523 5522 5521 5520 5519 5517 5516 5515 5513 5512 5510 5509 5508 5507 5506 5504 5503 5502 5500 5500 5499 5501 5502 5502 5502 5502 5502 5502 5503 5504 5505 5506 5507 5508 5509 5510 5511 5512 5513 5514 5515
5515 5513 5512 5510 5510 5509 5507 5506 5505 5503 5502 5500 5499 5497 5496 5494 5493 5492 5491 5490 5489 5489 5488 5488 5490 5489 5489 5488 5489 5490 5491 5491 5492 5493 5494 5496 5497 5497 5498 5499 5500 5501 5502
5504 5502 5501 5500 5499 5498 5496 5495 5493 5492 5491 5489 5487 5486 5484 5483 5482 5480 5479 5478 5477 5476 5475 5475 5476 5476 5475 5475 5475 5475 5477 5478 5479 5480 5481 5482 5483 5484 5485 5486 5487 5488 5489
5492 5491 5490 5489 5488 5486 5485 5483 5481 5480 5479 5477 5476 5474 5473 5472 5470 5469 5467 5466 5464 5463 5462 5463 5463 5463 5462 5462 5461 5462 5463 5464 5466 5467 5467 5468 5470 5471 5472 5473 5473 5474 5475
5480 5479 5478 5477 5476 5476 5474 5473 5470 5469 5467 5466 5464 5462 5461 5460 5458 5457 5455 5454 5453 5451 5450 5450 5450 5449 5450 5449 5448 5448 5448 5449 5451 5453 5452 5454 5455 5456 5458 5459 5460 5461 5461
5468 5467 5467 5466 5465 5464 5462 5461 5459 5456 5455 5454 5452 5451 5450 5449 5447 5444 5443 5442 5441 5440 5439 5438 5437 5437 5437 5436 5435 5436 5435 5435 5436 5438 5437 5439 5441 5442 5444 5444 5445 5446 5447
5457 5456 5455 5454 5454 5453 5451 5450 5448 5445 5444 5443 5442 5440 5438 5437 5435 5433 5432 5431 5429 5428 5428 5427 5426 5426 5425 5424 5424 5424 5424 5424 5424 5424 5423 5424 5427 5429 5431 5431 5431 5432 5434
5446 5445 5444 5443 5442 5442 5441 5439 5437 5434 5433 5433 5431 5430 5428 5427 5426 5423 5421 5420 5419 5418 5417 5416 5415 5415 5414 5413 5412 5411 5411 5410 5411 5412 5411 5410 5413 5414 5416 5417 5418 5419 5420
5435 5434 5433 5432 5431 5431 5430 5428 5426 5423 5422 5422 5421 5420 5418 5417 5415 5413 5411 5409 5408 5407 5406 5405 5405 5404 5403 5402 5400 5399 5398 5397 5397 5398 5399 5398 5398 5398 5401 5405 5406 5406 5407